The Dalles, WA

2:34 PM PST on December 06, 2019 (GMT -0800)
Columbia Gorge Regional-The Dalles

Weather History for KDLS - October, 2019

Change the Weather History Date:

Monday, October 7, 2019

  Actual Average Record
Temperature  
Mean Temperature 56 °F -  
Max Temperature 73 °F 71 °F 90 °F (2014)
Min Temperature 39 °F 44 °F 31 °F (1974)
Degree Days  
Heating Degree Days 9    
Growing Degree Days 6 (Base 50)    
Moisture  
Dew Point 44 °F    
Average Humidity 62    
Maximum Humidity 86    
Minimum Humidity 37    
Precipitation  
Precipitation 0.00 in - - ()
Sea Level Pressure  
Sea Level Pressure 30.00 in    
Wind  
Wind Speed 7 mph (WNW)    
Max Wind Speed 23 mph    
Max Gust Speed 33 mph    
Visibility 10 miles    
Events      
Averages and records for this station are not official NWS values.
T = Trace of Precipitation, MM = Missing Value Source: NWS Daily Summary

Daily Weather History Graph

Daily Weather History Graph

Search for Another Location

Airport or City:

Astronomy

Oct. 07, 2019 Rise Set
Actual Time 7:10 AM PDT 6:33 PM PDT
Civil Twilight 6:40 AM PDT 7:03 PM PDT
Nautical Twilight 6:06 AM PDT 7:37 PM PDT
Astronomical Twilight 5:31 AM PDT 8:12 PM PDT
Moon 4:19 PM PDT (10/7) 12:46 AM PDT (10/7)
Length of Visible Light 12h 22m
Length of Day
11h 23m
Waxing Gibbous, 70% of the Moon is Illuminated
Oct 7
Waxing Gibbous
Oct 13
Full
Oct 21
Last Quarter
Oct 27
New
Nov 4
First Quarter

Hourly Weather History & Observations

Time (PDT) Temp. Windchill Dew Point Humidity Pressure Visibility Wind Dir Wind Speed Gust Speed Precip Events Conditions
12:53 AM 44.1 °F 41.5 °F 37.0 °F 76% 30.15 in 10.0 mi ESE 4.6 mph - N/A   Clear
1:53 AM 45.0 °F - 39.0 °F 80% 30.15 in 10.0 mi Calm Calm - N/A   Clear
2:53 AM 44.1 °F 39.5 °F 37.0 °F 76% 30.13 in 10.0 mi ESE 8.1 mph - N/A   Clear
3:53 AM 43.0 °F 41.3 °F 37.0 °F 80% 30.13 in 10.0 mi SE 3.5 mph - N/A   Clear
5:53 AM 41.0 °F 39.0 °F 37.0 °F 86% 30.12 in 10.0 mi East 3.5 mph - N/A   Clear
6:53 AM 39.9 °F 37.8 °F 36.0 °F 86% 30.12 in 10.0 mi SSE 3.5 mph - N/A   Clear
7:53 AM 42.1 °F - 37.9 °F 85% 30.12 in 10.0 mi Calm Calm - N/A   Clear
8:53 AM 48.0 °F - 39.9 °F 74% 30.11 in 10.0 mi Calm Calm - N/A   Clear
9:53 AM 51.1 °F - 39.9 °F 66% 30.10 in 10.0 mi Calm Calm - N/A   Clear
10:53 AM 55.0 °F - 41.0 °F 59% 30.07 in 10.0 mi Calm Calm - N/A   Clear
11:53 AM 61.0 °F - 43.0 °F 52% 30.04 in 10.0 mi Calm Calm - N/A   Clear
12:53 PM 66.0 °F - 44.1 °F 45% 30.01 in 10.0 mi West 5.8 mph - N/A   Clear
1:53 PM 73.0 °F - 45.0 °F 37% 29.97 in 10.0 mi WNW 20.7 mph 28.8 mph N/A   Mostly Cloudy
2:53 PM 72.0 °F - 46.0 °F 40% 29.95 in 10.0 mi WNW 23.0 mph 33.4 mph N/A   Clear
3:53 PM 70.0 °F - 48.0 °F 46% 29.94 in 10.0 mi WNW 21.9 mph 28.8 mph N/A   Clear
4:53 PM 69.1 °F - 48.0 °F 47% 29.93 in 10.0 mi WNW 20.7 mph 27.6 mph N/A   Clear
5:53 PM 66.0 °F - 48.9 °F 54% 29.91 in 10.0 mi NW 17.3 mph 27.6 mph N/A   Clear
6:53 PM 64.0 °F - 48.9 °F 58% 29.89 in 10.0 mi NNW 13.8 mph 24.2 mph N/A   Clear
7:53 PM 62.1 °F - 48.9 °F 62% 29.87 in 10.0 mi NW 12.7 mph - N/A   Clear
8:53 PM 64.0 °F - 50.0 °F 60% 29.85 in 10.0 mi WSW 4.6 mph 17.3 mph N/A   Clear
9:53 PM 68.0 °F - 50.0 °F 52% 29.83 in 10.0 mi WNW 13.8 mph - N/A   Mostly Cloudy
10:53 PM 66.9 °F - 51.1 °F 57% 29.81 in 10.0 mi West 13.8 mph - N/A   Mostly Cloudy
11:53 PM 66.9 °F - 52.0 °F 59% 29.81 in 10.0 mi West 13.8 mph - N/A   Overcast